Regional Weather Roundup
Issued by NWS Goodland, KS

Home | Current Version | Previous Version | Graphics & Text | Print | Product List | Glossary On
Versions: 1 2 3 4 5 6 7 8 9 10 11 12 13 14 15 16 17 18 19 20 21 22 23 24 25 26 27 28 29 30 31 32 33 34 35 36 37 38 39 40 41 42 43 44 45 46 47 48 49 50
000
ASUS43 KGLD 281808
RWRGLD

GOODLAND FORECAST AREA HOURLY WEATHER ROUNDUP
NATIONAL WEATHER SERVICE GOODLAND KS
1200 PM MDT THU AUG 28 2014

...OFFICIAL OBSERVATIONS...

CITY           SKY/WX    TMP DP  RH WIND       PRES   REMARKS
GOODLAND KS    MOSUNNY   75  60  59 N15G24    30.02F
HILL CITY KS   CLOUDY    73  64  73 NE5       29.94F
IMPERIAL NEB   PTSUNNY   74  61  63 NW10      29.99F
MCCOOK NEB     SUNNY     79  61  53 NW10      29.94F
AKRON CO       MOSUNNY   71  53  52 NW15      30.08F
BURLINGTON CO  SUNNY     75  51  43 NW18G25   30.05F
LIMON CO       PTSUNNY   71  46  40 N9        30.14F
$$

...UNOFFICIAL OBSERVATIONS...

CITY           SKY/WX    TMP DP  RH WIND       PRES   REMARKS
COLBY KS       PTSUNNY   77  64  65 NW12      29.99S
GOVE KS          N/A     78  32  18 CALM        N/A
NORTON KS      PTSUNNY   75  57  53 NE7       29.93
SHARON SPRINGS   N/A     78  61  55 N12G18      N/A
WAKEENEY KS      N/A     73  63  70 MISG        N/A
KIT CARSON CO    N/A     76  52  42 N12         N/A
YUMA CO          N/A     73  57  57 N12G18      N/A
$$



USA.gov is the U.S. government's official web portal to all federal, state and local government web resources and services.